Weather History for KBFM - December, 2013

Change the Weather History Date:

Monday, December 2, 2013

  Actual Average Record
Temperature  
Mean Temperature 55 °F -  
Max Temperature 64 °F 64 °F 77 °F (2014)
Min Temperature 46 °F 45 °F 32 °F (2008)
Degree Days  
Heating Degree Days 10    
Growing Degree Days 5 (Base 50)    
Moisture  
Dew Point 52 °F    
Average Humidity 86    
Maximum Humidity 97    
Minimum Humidity 65    
Precipitation  
Precipitation 0.00 in - - ()
Sea Level Pressure  
Sea Level Pressure 29.91 in    
Wind  
Wind Speed 3 mph (SSE)    
Max Wind Speed 10 mph    
Max Gust Speed -    
Visibility 8 miles    
Events      
Averages and records for this station are not official NWS values.
T = Trace of Precipitation, MM = Missing Value Source: NWS Daily Summary

Daily Weather History Graph

Daily Weather History Graph

Search for Another Location

Airport or City:

Trip Planner

Search our weather history database for the weather conditions in past years. The results will help you decide how hot, cold, wet, or windy it might be!

Date:

Astronomy

Dec. 02, 2013 Rise Set
Actual Time 6:32 AM CST 4:50 PM CST
Civil Twilight 6:06 AM CST 5:16 PM CST
Nautical Twilight 5:36 AM CST 5:46 PM CST
Astronomical Twilight 5:07 AM CST 6:15 PM CST
Moon 6:00 AM CST (12/2) 4:51 PM CST (12/2)
Length of Visible Light 11h 10m
Length of Day
10h 17m
Waning Crescent, 0% of the Moon is Illuminated
Dec 2
Waning Crescent
Dec 2
New
Dec 9
First Quarter
Dec 17
Full
Dec 25
Last Quarter

Hourly Weather History & Observations

Time (CST) Temp. Dew Point Humidity Pressure Visibility Wind Dir Wind Speed Gust Speed Precip Events Conditions
12:53 AM 52.0 °F 48.9 °F 89% 30.02 in 10.0 mi Calm Calm - N/A   Clear
1:53 AM 52.0 °F 50.0 °F 93% 30.00 in 10.0 mi Calm Calm - N/A   Overcast
2:53 AM 53.1 °F 50.0 °F 89% 30.00 in 10.0 mi NW 4.6 mph - 0.00 in   Scattered Clouds
3:53 AM 52.0 °F 50.0 °F 93% 29.97 in 10.0 mi Calm Calm - 0.00 in   Partly Cloudy
4:53 AM 50.0 °F 48.0 °F 93% 29.96 in 4.0 mi Calm Calm - N/A   Clear
5:53 AM 46.9 °F 46.0 °F 97% 29.96 in 4.0 mi Calm Calm - N/A   Clear
6:09 AM 46.9 °F 46.0 °F 97% 29.95 in 2.0 mi Calm Calm - N/A   Clear
6:22 AM 46.9 °F 46.0 °F 97% 29.95 in 3.0 mi Calm Calm - N/A   Clear
6:35 AM 46.0 °F 44.1 °F 93% 29.95 in 1.8 mi Calm Calm - N/A   Clear
6:50 AM 46.4 °F 44.6 °F 93% 29.95 in 2.0 mi Calm Calm - N/A   Clear
6:53 AM 46.9 °F 45.0 °F 93% 29.96 in 5.0 mi Calm Calm - N/A   Clear
7:53 AM 55.0 °F 52.0 °F 89% 29.96 in 10.0 mi Calm Calm - N/A   Clear
8:53 AM 57.9 °F 54.0 °F 87% 29.96 in 10.0 mi SE 6.9 mph - N/A   Clear
9:53 AM 60.1 °F 53.1 °F 78% 29.95 in 10.0 mi SE 8.1 mph - N/A   Clear
10:53 AM 62.1 °F 53.1 °F 72% 29.93 in 10.0 mi SE 9.2 mph - N/A   Clear
11:53 AM 63.0 °F 54.0 °F 72% 29.89 in 10.0 mi SE 10.4 mph - N/A   Clear
12:53 PM 64.9 °F 53.1 °F 65% 29.86 in 10.0 mi SSE 9.2 mph - N/A   Clear
1:53 PM 64.0 °F 54.0 °F 70% 29.85 in 10.0 mi SE 10.4 mph - N/A   Clear
2:53 PM 64.0 °F 53.1 °F 67% 29.83 in 10.0 mi SSE 9.2 mph - N/A   Scattered Clouds
3:53 PM 63.0 °F 55.0 °F 75% 29.83 in 10.0 mi South 4.6 mph - N/A   Scattered Clouds
4:53 PM 60.1 °F 51.1 °F 72% 29.83 in 10.0 mi Calm Calm - N/A   Scattered Clouds
5:53 PM 61.0 °F 55.0 °F 81% 29.84 in 10.0 mi South 5.8 mph - N/A   Mostly Cloudy
6:53 PM 60.1 °F 55.9 °F 86% 29.84 in 10.0 mi South 5.8 mph - N/A   Mostly Cloudy
7:53 PM 60.1 °F 55.9 °F 86% 29.83 in 10.0 mi South 5.8 mph - N/A   Scattered Clouds
8:53 PM 60.1 °F 57.0 °F 90% 29.84 in 10.0 mi South 4.6 mph - N/A   Mostly Cloudy
9:53 PM 60.1 °F 57.0 °F 90% 29.87 in 10.0 mi Calm Calm - N/A   Overcast
10:53 PM 59.0 °F 57.0 °F 93% 29.86 in 10.0 mi SSE 3.5 mph - N/A   Mostly Cloudy
11:53 PM 57.9 °F 57.0 °F 97% 29.84 in 8.0 mi South 4.6 mph - N/A   Scattered Clouds